www.pogodaiklimat.ru

Погода и климат >> Архив погоды >> Туркменистан >> Кака


ПОГОДА в Каке

  • Прогноз погоды в Каке
  • Монитор погоды в Каке

АРХИВ ПОГОДЫ в Каке

Время (UTC), дата Ветер
(напр.,м/с)
 
Видим.   Явления Облачность Т
(С)
Тd
(С)
f
(%)
Тe
(С)
Тes
(С)
Комфортность P
(гПа)
Po
(гПа)
Тmin
(С)
Tmax
(С)
R
(мм)
R24
(мм)
S
(см)
21 10.06 штиль 0 50 км ясно +19.7 +5.3 39 +20 +20 1018.7 983.0
00 11.06 Ю 2 50 км ясно +16.1 +6.2 52 +16 +16 1019.1 982.9
03 11.06 штиль 0 50 км ясно +22.3 +8.1 40 +23 +29 комфорт 1019.4 983.9 +15.4
06 11.06 Ю 2 50 км ясно +28.3 +3.8 21 +27 +43 жарко 1018.5 983.7 +15.4
09 11.06 ЮВ 2 50 км ясно +30.3 +4.8 20 +28 +48 жарко 1017.4 982.9
12 11.06 СВ 2 50 км ясно +30.9 +5.3 20 +29 +37 жарко 1015.5 981.1
15 11.06 В 2 50 км ясно +29.0 +3.2 19 +27 +27 жарко 1014.9 980.4 +31.7
18 11.06 штиль 0 50 км ясно +22.2 +5.8 34 +23 +23 комфорт 1016.0 980.7 +31.7
21 11.06 Ю 2 50 км ясно +20.3 +4.1 34 +21 +21 комфорт 1014.8 979.2
00 12.06 штиль 0 50 км ясно +19.1 +4.0 37 +19 +19 1014.1 978.5
03 12.06 штиль 0 50 км ясно +24.1 +5.9 31 +24 +29 комфорт 1014.4 979.3 +18.0
06 12.06 В 6 50 км ясно +29.6 +0.6 15 +27 +34 жарко 1013.0 978.6 +18.0
09 12.06 В 4 50 км ясно +31.4 +0.9 14 +28 +42 жарко 1011.1 976.9
12 12.06 В 4 50 км ясно +32.6 +1.7 14 +30 +35 жарко 1009.5 975.5
15 12.06 В 2 50 км ясно +30.7 +2.9 17 +28 +28 жарко 1008.9 974.8 +33.7
18 12.06 Ю 2 50 км 3/0
[Ci fib]
+23.6 +5.5 31 +24 +24 комфорт 1010.0 975.0 +33.7
21 12.06 Ю 2 50 км ясно +21.7 +6.1 36 +22 +22 комфорт 1009.1 974.0
00 13.06 штиль 0 50 км ясно +20.7 +6.2 39 +21 +21 комфорт 1008.7 973.4
03 13.06 штиль 0 50 км ясно +24.9 +8.4 35 +25 +31 комфорт 1008.5 973.7 +19.1
06 13.06 В 4 50 км ясно +32.8 +2.7 15 +30 +41 жарко 1007.3 973.4 +19.1
09 13.06 В 4 50 км ясно +35.1 +2.7 13 +32 +45 жарко 1005.6 972.0
12 13.06 В 4 50 км 6/0
[Cc]
+36.3 +3.6 13 +33 +38 жарко 1004.2 970.8
15 13.06 В 2 50 км 4/0
[Ac lent Cc]
+33.2 +5.6 18 +31 +31 жарко 1004.9 971.1 +37.0
18 13.06 Ю 2 50 км 3/0
[Ci fib]
+26.5 +5.6 26 +26 +26 жарко 1006.8 972.2 +37.0
21 13.06 Ю 2 20 км ясно +25.7 +6.2 29 +25 +25 комфорт 1006.1 971.5
00 14.06 Ю 2 50 км ясно +23.1 +7.1 36 +24 +24 комфорт 1007.7 971.8
03 14.06 Ю 2 50 км ясно +26.2 +10.3 37 +27 +31 жарко 1007.3 971.8 +22.5
06 14.06 В 2 50 км 3/0
[Ci fib]
+35.6 +7.3 18 +34 +49 очень
жарко
1006.5 973.0 +22.5
09 14.06 С 2 50 км ясно +37.4 +4.0 13 +34 +54 опасность
солнечного
удара
1005.7 972.4
12 14.06 СЗ 2 50 км 4/0
[Cc]
+37.3 +7.0 16 +35 +43 очень
жарко
1005.3 972.0
15 14.06 СЗ 2 50 км ясно +34.9 +7.8 19 +33 +33 жарко 1005.7 972.1 +38.6
18 14.06 ЮЗ 2 50 км 5/0
[Cs]
+30.0 +8.8 27 +29 +29 жарко 1077.5 973.5 +38.6
21 14.06 З 4 50 км 9/0
[Ac lent Cs]
+29.2 +11.1 33 +30 +30 жарко 1008.3 974.1
00 15.06 З 2 50 км 9/3 1000 м
[Cb cap Ac lent Ci fib]
+28.4 +10.4 33 +29 +29 жарко 1008.2 974.0
03 15.06 З 4 50 км ясно +29.0 +12.9 37 +30 +33 жарко 1010.6 976.3 +27.4
06 15.06 СЗ 6 50 км ясно +32.5 +10.6 26 +32 +39 жарко 1010.7 976.8 +27.4
09 15.06 СВ 2 50 км ясно +35.4 +10.2 22 +34 +54 опасность
солнечного
удара
1010.2 976.6
12 15.06 СЗ 2 50 км ясно +37.4 +9.3 18 +36 +44 очень
жарко
1008.5 975.1
15 15.06 штиль 0 50 км ясно +35.0 +9.5 21 +34 +34 очень
жарко
1008.5 974.9 +38.1
18 15.06 штиль 0 50 км ясно +26.7 +9.5 34 +27 +27 жарко 1010.0 975.4 +38.1
21 15.06 штиль 0 50 км ясно +24.9 +10.4 40 +26 +26 жарко 1010.3 975.5
00 16.06 Ю 2 50 км ясно +22.0 +8.9 43 +23 +23 комфорт 1011.1 975.9
03 16.06 штиль 0 50 км ясно +26.4 +10.2 36 +27 +32 жарко 1011.7 977.0 +20.0
06 16.06 В 4 50 км 1/0
[Ci fib]
+34.0 -0.2 11 +30 +42 жарко 1010.9 977.0 +20.0
09 16.06 В 4 50 км ясно +36.4 +2.3 12 +33 +47 жарко 1009.1 975.5
12 16.06 СВ 2 50 км ясно +36.3 +2.5 12 +33 +41 жарко 1007.4 973.9
15 16.06 В 2 50 км 3/0
[Ac lent Ci fib]
+34.1 +5.9 17 +32 +32 жарко 1007.3 973.6 +37.2
21 16.06 штиль 0 50 км ясно +24.8 +6.5 31 +25 +25 комфорт 1007.5 972.8
03 17.06 Ю 2 50 км ясно +25.7 +10.3 38 +27 +31 жарко 1008.0 973.3 +20.7

 

Местоположение метеостанции Кака (Ахалский велаят, Туркменистан): широта 37.35 долгота 59.63 высота над уровнем моря 308 м.

В архиве по умолчанию представлена погода в Каке за последнюю неделю. Архивные данные за месяц целиком и за предыдущие месяцы, начиная с января 2011 года, Вы можете получить, выбрав интересующий диапазон дат из раскрывающегося списка и нажав кнопку "Ввод!".


*Определитесь, кто Вы:
робот инопланетянин человек

Внимание! Время в таблицах - всемирное. Для получения местного времени необходимо прибавить поправку, которая равна 5 ч.

Смотрите также архив погоды в соседних городах и на ближайших метеорологических станциях:

Погода в Теджене (Ахалский велаят, Туркменистан) (79 км)
Погода в Кучане (Иран) (105 км)
Погода в Мешхеде (Иран) (120 км)
Погода в Ашхабаде (город Ашхабад, Туркменистан) (131 км)
Погода в Серахсе (Иран) (165 км)
Погода в Сарагте (Ахалский велаят, Туркменистан) (168 км)
Погода в Боджнурде (Иран) (204 км)
Погода в Себзеваре (Иран) (215 км)
Погода в Байрамалы (Ахалский велаят, Туркменистан) (227 км)
Погода в Бахарлы (Ахалский велаят, Туркменистан) (228 км)

Пояснения к столбцам:

Ветер - указаны скорость ветра в м/с - средняя за 10 мин, порывы в срок и между сроками (в фигурных скобках) и направление, откуда дует ветер: С - северный, СВ - северо-восточный, В - восточный, ЮВ - юго-восточный, Ю - южный, ЮЗ - юго-западный, З - западный, СЗ - северо-западный.
Видимость - горизонтальная дальность видимости в метрах или километрах. При видимости от 1 до 10 км при отсутствии осадков обычно наблюдается дымка, при ухудшении видимости до 1 км и менее - туман. В сухую погоду видимость может ухудшаться дымом, пылью или мглою.
Явления - указаны атмосферные явления, наблюдавшиеся в срок или в последний час перед сроком; фигурными скобками обозначены явления, наблюдавшиеся между сроками (за 1-3 часа до срока); квадратными скобками обозначены град или гололедные отложения с указанием их диаметра в мм.
Облачность - указаны через наклонную черту общая и нижняя облачность в баллах и высота нижней границы облаков в метрах; квадратными скобками обозначены формы облаков: Ci - перистые, Cs - перисто-слоистые, Cc - перисто-кучевые, Ac - высококучевые, As - высокослоистые, Sc - слоисто-кучевые, Ns - слоисто-дождевые, Cu - кучевые, Cb - кучево-дождевые. Подробнее классификацию облаков см. в Атласе облаков (PDF).
T - Температура воздуха - температура, измеренная на высоте 2 м над землей.
Td - Температура точки росы - температура, при понижении до которой содержащийся в воздухе водяной пар достигнет насыщения.
f - Относительная влажность воздуха - влажноcть воздуха, измеренная на высоте 2 м над землей.
Te - Эффективная температура - температура, которую ощущает одетый по сезону человек в тени. Характеристика душности погоды. При расчете учитывается влияние влажности воздуха и скорости ветра на теплоощущения человека.
Tes - Эффективная температура на солнце - температура, которую ощущает человек, с поправкой на солнечный нагрев. Характеристика знойности погоды. Зависит от высоты солнца над горизонтом, облачности и скорости ветра. Ночью, в пасмурную погоду, а также при ветре 12 м/с и более поправка равна нулю.
P - Атмосферное давление - приведенное к уровню моря атмосферное давление.
Po - Атмосферное давление - измеренное на уровне метеостанции атмосферное давление.
Tmin - Минимальная температура - минимум температуры воздуха на высоте 2 м над землей.
Tmax - Максимальная температура - максимум температуры воздуха на высоте 2 м над землей.
R - Количество осадков - Количество выпавших осадков за период времени, мм. При наведении курсора мыши на число - период времени, за который выпало указанное количество осадков.
R24 - Количество осадков - Количество выпавших осадков за 24 часа, мм.
S - Снежный покров - Высота снежного покрова, см. При наведении курсора мыши на число - состояние снежного покрова и степень покрытия местности в баллах.